logo tempoitalia

Diretta Meteo Taiyuan, Cinalunedì 31 agosto ore 13:00

Mappa
Sereno 28 °C Sereno 24 Ore: T.min 13 T.max 28
Ponente Nord Km/h 3.6 Punto di rugiada: 13 °C Umidità: 39% Visibilità: 10 Km
Il sole sorge alle: 05:58 Il sole tramonta alle: 19:01
31 Agosto 2026 13:00 tempo osservato: Sereno Sereno 28 39 1016 vento: Nord N 3.6
31 Agosto 2026 12:30 tempo osservato: Sereno Sereno 27 44 1016 vento: Nord N 3.6
31 Agosto 2026 12:00 tempo osservato: Sereno Sereno 26 47 1016 vento: Nord N 3.6
31 Agosto 2026 11:30 tempo osservato: Sereno Sereno 25 47 1017 vento: Nord N 3.6
31 Agosto 2026 11:00 tempo osservato: Sereno Sereno 24 50 1017 vento: Nord N 7.2
31 Agosto 2026 10:30 tempo osservato: Sereno Sereno 23 53 1017 vento: Nord N 7.2
31 Agosto 2026 10:00 tempo osservato: Sereno Sereno 23 49 1018 vento: Nord N 3.6
31 Agosto 2026 09:30 tempo osservato: Sereno Sereno 21 56 1018 vento: Nord N 3.6
31 Agosto 2026 09:00 tempo osservato: Sereno Sereno 20 59 1017 vento: Nord N 3.6
31 Agosto 2026 08:30 tempo osservato: Sereno Sereno 20 59 1017 vento: Nord N 3.6
31 Agosto 2026 08:00 tempo osservato: Sereno Sereno 19 63 1017 vento: Nord N 3.6
31 Agosto 2026 07:30 tempo osservato: Sereno Sereno 17 77 1017 vento: Nord N 3.6
31 Agosto 2026 07:00 tempo osservato: Sereno Sereno 16 82 1017 vento: Nord N 3.6
31 Agosto 2026 06:30 tempo osservato: Sereno Sereno 15 82 1017 vento: Nord N 3.6
31 Agosto 2026 06:00 tempo osservato: Sereno Sereno 14 82 1017 vento: Nord N 7.2
31 Agosto 2026 05:30 tempo osservato: Sereno Sereno 13 93 1016 vento: Nord N 3.6
31 Agosto 2026 05:00 tempo osservato: Sereno Sereno 14 87 1016 vento: Nord N 3.6
31 Agosto 2026 04:30 tempo osservato: Sereno Sereno 15 82 1016 vento: Nord N 3.6
31 Agosto 2026 04:00 tempo osservato: Sereno Sereno 15 82 1016 vento: Nord N 7.2
31 Agosto 2026 03:30 tempo osservato: Sereno Sereno 15 82 1016 vento: Nord N 3.6
31 Agosto 2026 03:00 tempo osservato: Sereno Sereno 15 82 1016 vento: Nord N 3.6
31 Agosto 2026 02:30 tempo osservato: Sereno Sereno 15 82 1016 vento: Nord N 7.2
31 Agosto 2026 02:00 tempo osservato: Sereno Sereno 16 77 1016 vento: Nord N 3.6
31 Agosto 2026 01:30 tempo osservato: Sereno Sereno 17 72 1016 vento: Nord N 3.6
31 Agosto 2026 01:00 tempo osservato: Sereno Sereno 17 72 1016 vento: Nord N 7.2
31 Agosto 2026 00:30 tempo osservato: Sereno Sereno 17 72 1016 vento: Nord N 7.2
31 Agosto 2026 00:00 tempo osservato: Sereno Sereno 18 72 1016 vento: Nord N 3.6
30 Agosto 2026 23:30 tempo osservato: Sereno Sereno 17 77 1016 vento: Nord N 7.2
30 Agosto 2026 23:00 tempo osservato: Sereno Sereno 18 72 1016 vento: Nord N 3.6
30 Agosto 2026 22:30 tempo osservato: Sereno Sereno 20 56 1015 vento: Nord N 7.2
30 Agosto 2026 22:00 tempo osservato: Sereno Sereno 20 56 1016 vento: Nord N 7.2
30 Agosto 2026 21:30 tempo osservato: Sereno Sereno 20 56 1015 vento: Nord E/NE 10.8
30 Agosto 2026 21:00 tempo osservato: Sereno Sereno 20 59 1015 vento: Nord E 10.8
30 Agosto 2026 20:30 tempo osservato: Sereno Sereno 22 49 1015 vento: Nord N 3.6
30 Agosto 2026 20:00 tempo osservato: Sereno Sereno 23 46 1014 vento: Nord NE 10.8
30 Agosto 2026 19:30 tempo osservato: Sereno Sereno 24 38 1014 vento: Nord NE 10.8
30 Agosto 2026 19:00 tempo osservato: Sereno Sereno 26 34 1014 vento: Nord N 7.2
30 Agosto 2026 18:30 tempo osservato: Sereno Sereno 26 34 1014 vento: Nord N/NE 14.4
30 Agosto 2026 18:00 tempo osservato: Sereno Sereno 27 32 1014 vento: Nord N/NE 14.4
30 Agosto 2026 17:30 tempo osservato: Sereno Sereno 27 32 1014 vento: Nord N 18
30 Agosto 2026 17:00 tempo osservato: Poco Nuvoloso Poco Nuvoloso 28 28 1014 vento: Nord N 18
30 Agosto 2026 16:30 tempo osservato: Poco Nuvoloso Poco Nuvoloso 28 30 1014 vento: Nord N 18
30 Agosto 2026 16:00 tempo osservato: Poco Nuvoloso Poco Nuvoloso 28 28 1014 vento: Nord N/NO 25.2
30 Agosto 2026 15:30 tempo osservato: Poco Nuvoloso Poco Nuvoloso 28 28 1014 vento: Nord N 18
30 Agosto 2026 15:00 tempo osservato: Poco Nuvoloso Poco Nuvoloso 28 28 1014 vento: Nord N 18
30 Agosto 2026 14:30 tempo osservato: Poco Nuvoloso Poco Nuvoloso 28 28 1015 vento: Nord N/NO 18
30 Agosto 2026 14:00 tempo osservato: Poco Nuvoloso Poco Nuvoloso 28 32 1015 vento: Nord N 18